Weather History for Idaho Falls, ID

Change the Weather History Date:

Monday, March 17, 2014

  Actual Average Record
Temperature  
Mean Temperature 42 °F 37 °F  
Max Temperature 52 °F 47 °F 69 °F (2007)
Min Temperature 32 °F 26 °F 7 °F (1964)
Degree Days  
Heating Degree Days 23 28  
Month to date heating degree days 422 539  
Since 1 July heating degree days 5939 6341  
Cooling Degree Days 0 0  
Month to date cooling degree days 0 0  
Year to date cooling degree days 0 0  
Moisture  
Dew Point 25 °F    
Average Humidity 61    
Maximum Humidity 89    
Minimum Humidity 32    
Precipitation  
Precipitation 0.07 in 0.03 in 0.47 in (1993)
Month to date precipitation 0.52 0.47  
Year to date precipitation 1.41 1.82  
Sea Level Pressure  
Sea Level Pressure 29.64 in    
Wind  
Wind Speed 18 mph (West)    
Max Wind Speed 45 mph    
Max Gust Speed 57 mph    
Visibility 7 miles    
Events Fog , Rain , Snow , Hail , Thunderstorm    
T = Trace of Precipitation, MM = Missing Value Source: NWS Daily Summary

Daily Weather History Graph

Daily Weather History Graph

Search for Another Location

Airport:

Trip Planner

Search our weather history database for the weather conditions in past years. The results will help you decide how hot, cold, wet, or windy it might be!

Date:

Astronomy

Mar. 17, 2014 Rise Set
Actual Time 7:36 AM MDT 7:37 PM MDT
Civil Twilight 7:08 AM MDT 8:05 PM MDT
Nautical Twilight 6:34 AM MDT 8:39 PM MDT
Astronomical Twilight 6:01 AM MDT 9:13 PM MDT
Moon 9:01 PM MDT (3/17) 7:52 AM MDT (3/17)
Length of Visible Light 12h 57m
Length of Day
12h 00m
Full, 99% of the Moon is Illuminated
Mar 17
Full
Mar 23
Last Quarter
Mar 30
New
Apr 7
First Quarter
Apr 15
Full

Hourly Weather History & Observations

Time (MDT) Temp. Windchill Dew Point Humidity Pressure Visibility Wind Dir Wind Speed Gust Speed Precip Events Conditions
12:53 AM 46.9 °F - 24.1 °F 41% 29.79 in 10.0 mi SSW 15.0 mph - N/A   Clear
1:53 AM 45.0 °F 39.7 °F 24.1 °F 44% 29.73 in 10.0 mi SW 10.4 mph - N/A   Clear
2:53 AM 50.0 °F - 21.9 °F 33% 29.66 in 10.0 mi SSW 12.7 mph - N/A   Clear
3:53 AM 46.0 °F 40.6 °F 25.0 °F 44% 29.62 in 10.0 mi SW 11.5 mph - N/A   Clear
4:53 AM 44.1 °F 37.7 °F 26.1 °F 49% 29.57 in 10.0 mi SW 12.7 mph - N/A   Clear
5:53 AM 45.0 °F 38.9 °F 24.1 °F 44% 29.54 in 10.0 mi SW 12.7 mph - N/A   Clear
6:53 AM 46.9 °F - 21.9 °F 37% 29.52 in 10.0 mi SW 21.9 mph 27.6 mph N/A   Mostly Cloudy
7:53 AM 46.0 °F 39.6 °F 21.0 °F 37% 29.49 in 10.0 mi SSW 15.0 mph - N/A   Mostly Cloudy
8:53 AM 46.9 °F - 21.9 °F 37% 29.47 in 10.0 mi WSW 28.8 mph 47.2 mph N/A   Widespread Dust
9:53 AM 39.9 °F 27.8 °F 30.0 °F 68% 29.50 in 10.0 mi SW 33.4 mph 43.7 mph N/A   Widespread Dust
10:53 AM 39.9 °F 27.1 °F 30.0 °F 68% 29.49 in 10.0 mi SW 38.0 mph 55.2 mph N/A   Widespread Dust
11:53 AM 41.0 °F 29.1 °F 28.0 °F 60% 29.47 in 10.0 mi SW 34.5 mph 50.6 mph 0.00 in Rain Light Rain
12:00 PM 39.0 °F 26.1 °F 28.0 °F 65% 29.55 in 4.0 mi West 36.8 mph 48.3 mph 0.00 in Rain Light Rain
12:02 PM 37.0 °F 27.7 °F 28.9 °F 73% 29.55 in 1.2 mi West 16.1 mph 48.3 mph 0.00 in Snow Light Snow
12:04 PM 35.1 °F 24.5 °F 28.9 °F 78% 29.56 in 1.0 mi West 18.4 mph 48.3 mph 0.01 in Hail Hail
12:11 PM 33.1 °F 22.2 °F 30.0 °F 89% 29.56 in 1.0 mi West 17.3 mph 26.5 mph 0.01 in Snow , Thunderstorm Light Snow
12:23 PM 33.1 °F 22.6 °F 30.0 °F 89% 29.56 in 0.2 mi NW 16.1 mph - 0.02 in Fog , Snow , Thunderstorm Snow
12:37 PM 32.0 °F 23.0 °F 30.9 °F 96% 29.59 in 0.2 mi WNW 11.5 mph 21.9 mph 0.04 in Fog , Snow , Thunderstorm Heavy Snow
12:53 PM 32.0 °F 22.1 °F 30.0 °F 92% 29.61 in 0.2 mi West 13.8 mph - 0.05 in Fog , Snow Heavy Snow
1:32 PM 32.0 °F 23.0 °F 30.0 °F 92% 29.62 in 0.5 mi WSW 11.5 mph - 0.02 in Fog , Snow Snow
1:47 PM 33.8 °F 23.5 °F 30.2 °F 87% 29.62 in 1.2 mi SW 16.1 mph - 0.02 in Snow Light Snow
1:53 PM 33.1 °F 23.0 °F 30.9 °F 92% 29.63 in 2.0 mi SSW 15.0 mph - 0.02 in Snow Light Snow
2:27 PM 36.0 °F 27.5 °F 24.1 °F 62% 29.63 in 2.0 mi WNW 12.7 mph - 0.00 in   Overcast
2:53 PM 36.0 °F 24.2 °F 24.1 °F 62% 29.64 in 2.0 mi West 24.2 mph 31.1 mph 0.00 in   Overcast
3:23 PM 35.1 °F 25.9 °F 30.9 °F 85% 29.66 in 5.0 mi SW 13.8 mph - N/A   Overcast
3:53 PM 37.9 °F 30.0 °F 24.1 °F 57% 29.67 in 5.0 mi West 12.7 mph 24.2 mph N/A   Overcast
4:53 PM 37.9 °F 29.2 °F 19.9 °F 48% 29.71 in 10.0 mi NNW 15.0 mph 24.2 mph N/A   Overcast
5:53 PM 37.9 °F 28.9 °F 19.0 °F 47% 29.73 in 10.0 mi NW 16.1 mph - N/A   Overcast
6:53 PM 37.0 °F 28.1 °F 21.0 °F 52% 29.77 in 10.0 mi NNW 15.0 mph 25.3 mph N/A   Overcast
7:53 PM 36.0 °F 27.1 °F 19.0 °F 50% 29.81 in 10.0 mi NNW 13.8 mph - N/A   Overcast
8:53 PM 34.0 °F 29.8 °F 19.9 °F 56% 29.84 in 10.0 mi NNW 4.6 mph - N/A   Overcast
9:53 PM 32.0 °F 26.4 °F 19.9 °F 61% 29.90 in 10.0 mi NNW 5.8 mph - N/A   Overcast
10:53 PM 34.0 °F 22.7 °F 16.0 °F 48% 29.92 in 10.0 mi North 19.6 mph 26.5 mph N/A   Overcast
11:53 PM 34.0 °F 23.4 °F 17.1 °F 50% 29.93 in 10.0 mi North 17.3 mph - N/A   Overcast